www.pogodaiklimat.ru
ПОГОДА в Хасфьярдене
Время
(UTC), дата
08 27.07
07 27.07
09 27.07
10 27.07
11 27.07
12 27.07
14 27.07
13 27.07
15 27.07
16 27.07
17 27.07
18 27.07
20 27.07
19 27.07
21 27.07
22 27.07
23 27.07
00 28.07
02 28.07
01 28.07
03 28.07
04 28.07
05 28.07
06 28.07
08 28.07
07 28.07
09 28.07
10 28.07
11 28.07
12 28.07
14 28.07
13 28.07
15 28.07
16 28.07
17 28.07
18 28.07
20 28.07
19 28.07
21 28.07
22 28.07
23 28.07
00 29.07
02 29.07
01 29.07
03 29.07
04 29.07
05 29.07
06 29.07
08 29.07
07 29.07
09 29.07
10 29.07
11 29.07
12 29.07
14 29.07
13 29.07
15 29.07
16 29.07
17 29.07
18 29.07
20 29.07
19 29.07
21 29.07
22 29.07
23 29.07
00 30.07
02 30.07
01 30.07
03 30.07
04 30.07
05 30.07
06 30.07
08 30.07
07 30.07
09 30.07
10 30.07
11 30.07
12 30.07
14 30.07
13 30.07
15 30.07
16 30.07
17 30.07
18 30.07
20 30.07
19 30.07
21 30.07
22 30.07
23 30.07
00 31.07
02 31.07
01 31.07
03 31.07
04 31.07
05 31.07
06 31.07
08 31.07
07 31.07
09 31.07
10 31.07
11 31.07
12 31.07
14 31.07
13 31.07
15 31.07
16 31.07
17 31.07
18 31.07
20 31.07
19 31.07
21 31.07
22 31.07
23 31.07
00 1.08
02 1.08
01 1.08
03 1.08
04 1.08
05 1.08
06 1.08
08 1.08
07 1.08
09 1.08
10 1.08
11 1.08
12 1.08
14 1.08
13 1.08
15 1.08
16 1.08
17 1.08
18 1.08
20 1.08
19 1.08
21 1.08
22 1.08
23 1.08
00 2.08
02 2.08
01 2.08
03 2.08
04 2.08
05 2.08
06 2.08
08 2.08
07 2.08
09 2.08
10 2.08
11 2.08
12 2.08
14 2.08
13 2.08
15 2.08
16 2.08
17 2.08
18 2.08
20 2.08
19 2.08
21 2.08
22 2.08
23 2.08
00 3.08
02 3.08
01 3.08
03 3.08
04 3.08
05 3.08
06 3.08
07 3.08
Ветер
(напр.,м/с)
Видим. Явления Облачность Т
(С)
Тd
(С)
f
(%)
Тe
(С)
Тes
(С)
Комфортность P
(гПа)
Po
(гПа)
Тmin
(С)
Tmax
(С)
R
(мм)
R24
(мм)
S
(см)
ЮЗ 3-5
{5}
40 км ясно +20.5 +15.2 72 +24 +31 комфорт 1015.1 1014.6
СЗ 3-6
{6}
40 км ясно +17.5 +14.5 83 +18 +23 1014.8 1014.3
ЮЗ 3-5
{5}
40 км ясно +20.5 +14.9 70 +24 +33 комфорт 1015.4 1014.9
З 3-6
{6}
40 км 3/0
[]
+22.3 +15.1 64 +26 +35 жарко 1015.4 1014.9
Ю 3-4
{6}
40 км 3/0
[]
+21.8 +15.6 68 +25 +34 комфорт 1015.7 1015.2
Ю 4-6
{6}
40 км 1/0
[]
+19.9 +16.2 79 +22 +30 комфорт 1016.1 1015.6
Ю 3-6
{7}
45 км ясно +19.9 +15.6 76 +22 +29 комфорт 1015.9 1015.4
Ю 5-7
{7}
35 км ясно +20.2 +15.6 75 +23 +28 комфорт 1016.0 1015.5
Ю 5-7
{7}
45 км ясно +18.7 +15.2 80 +19 +22 1015.7 1015.2
Ю 3-4
{6}
45 км ясно +19.1 +15.7 81 +21 +23 комфорт 1015.5 1015.0
Ю 3-5
{5}
45 км ясно +18.7 +15.7 83 +20 +21 1015.3 1014.8
Ю 3-4
{5}
45 км ясно +17.8 +15.3 85 +18 +18 1015.3 1014.8 +16.9 +23.5
штиль 0-2
{3}
45 км ясно +14.8 +14.4 97 +14 +14 1015.2 1014.7
ЮЗ 2-4
{4}
45 км ясно +16.7 +15.1 90 +17 +17 1015.4 1014.9
штиль 0
{1}
35 км ясно +13.8 +13.8 100 +13 +13 1014.9 1014.4
штиль 0 26 км ясно +13.4 +13.4 100 +13 +13 1014.7 1014.2
штиль 0-1
{1}
25 км ?/? +13.1 +13.1 100 +12 +12 1014.5 1014.0
штиль 0
{1}
26 км 3/3 90 м
[]
+14.6 +14.6 100 +14 +14 1014.0 1013.5
штиль 0-1
{2}
12 км ясно +13.1 +13.1 100 +12 +12 1012.9 1012.4
В 1-2
{2}
13 км 1/1 90 м
[]
+13.6 +13.6 100 +14 +14 1013.5 1013.0
штиль 0-1
{1}
30 км 6/6 120 м
[]
+13.2 +13.2 100 +13 +13 1012.5 1012.0
Ю 3-4
{4}
19 км 3/3 150 м
[]
+15.7 +15.7 100 +15 +15 1012.2 1011.7
ЮВ 2-4
{4}
30 км 3/3 210 м
[]
+16.2 +16.0 99 +16 +18 1011.5 1011.0
ЮВ 3-4
{4}
30 км 3/3 210 м
[]
+16.7 +16.2 97 +16 +19 1011.0 1010.5 +12.6 +17.7
Ю 4-6
{6}
45 км 4/0
[]
+17.9 +15.8 88 +18 +23 1010.8 1010.3
Ю 3-4
{4}
45 км 3/0
[]
+17.5 +16.0 91 +17 +22 1010.7 1010.2
Ю 6-7
{7}
45 км 5/0
[]
+18.3 +15.1 82 +18 +21 1010.4 1009.9
Ю 5-7
{7}
35 км 5/0
[]
+18.5 +15.9 85 +19 +24 1010.0 1009.5
ЮВ 6-8
{8}
45 км 4/0
[]
+18.0 +15.8 87 +17 +21 1009.2 1008.7
ЮВ 5-8
{8}
45 км 3/0
[]
+17.7 +16.4 92 +17 +23 1008.8 1008.3
ЮВ 4-5
{7}
35 км слаб. ливневой дождь 1/0
[]
+17.2 +16.5 96 +17 +22 1007.7 1007.2 0.1
ЮВ 5-8
{8}
26 км слаб. дождь 1/0
[]
+17.5 +16.1 91 +17 +22 1008.5 1008.0 0.1
ЮВ 5-8
{8}
50 км в посл. час морось {ливн. дождь, дождь} ясно +17.5 +16.1 91 +17 +20 1006.8 1006.3 0.1
ЮВ 5-7
{9}
22 км ливневой дождь {морось} ясно +16.8 +16.4 97 +16 +18 1006.3 1005.8 1
ЮВ 6-8
{9}
30 км слаб. ливневой дождь {морось} ясно +16.9 +16.4 97 +16 +16 1005.7 1005.2 0.2
ЮВ 6-8
{8}
35 км в посл. час дождь {ливн. дождь, морось} ясно +17.2 +16.9 98 +16 +16 1004.7 1004.2 +16.7 +19.6 0.2
Ю 3-5
{8}
18 км {ливн. дождь, дождь} ясно +17.3 +17.2 99 +17 +17 1003.5 1003.0
ЮВ 6-8
{8}
22 км слаб. ливневой дождь ясно +17.4 +17.1 98 +17 +17 1004.0 1003.5
ЮЗ 2-4
{4}
15 км в посл. час морось {ливн. дождь, дождь} ясно +17.0 +16.9 99 +17 +17 1003.1 1002.6 0.1
З 3-5
{5}
45 км {ливн. дождь, дождь} ясно +15.1 +14.1 94 +14 +14 1003.9 1003.4
З 2-4
{4}
20 км {ливн. дождь, дождь} ясно +13.0 +12.8 99 +12 +12 1004.1 1003.6
З 2-3
{4}
18 км {ливн. дождь, дождь} ясно +13.1 +13.1 100 +12 +12 1004.2 1003.7
З 1-2
{2}
13 км ясно +12.3 +12.3 100 +12 +12 1004.8 1004.3
З 2-2
{3}
21 км ясно +12.9 +12.9 100 +12 +12 1004.6 1004.1
З 1-2
{2}
10 км ясно +11.7 +11.7 100 +11 +11 1004.7 1004.2
ЮЗ 2-2
{2}
21 км ясно +12.3 +12.3 100 +11 +12 1004.6 1004.1
З 3-4
{4}
40 км ясно +14.4 +14.4 100 +13 +15 1004.7 1004.2
З 3-5
{5}
40 км ясно +16.4 +14.3 87 +16 +19 1004.9 1004.4 +11.5 +17.5
ЮЗ 4-6
{7}
35 км 1/0
[]
+18.4 +13.0 71 +19 +24 1005.5 1005.0
З 2-4
{7}
40 км ясно +18.4 +14.7 79 +19 +26 1005.2 1004.7
ЮЗ 5-7
{8}
45 км ясно +18.8 +11.9 64 +19 +25 1005.7 1005.2
ЮЗ 3-4
{7}
45 км 1/0
[]
+17.2 +11.7 70 +17 +27 1005.9 1005.4
Ю 6-10
{10}
35 км слаб. дождь 3/0
[]
+16.5 +12.4 77 +15 +20 1006.1 1005.6
Ю 4-6
{10}
45 км в посл. час морось {ливн. дождь, дождь} ясно +18.2 +13.1 72 +18 +26 1005.8 1005.3
ЮЗ 5-9
{10}
40 км 1/0
[]
+18.5 +13.3 72 +19 +23 1005.6 1005.1
Ю 7-10
{10}
45 км {морось} 1/0
[]
+18.1 +12.4 69 +17 +20 1005.6 1005.1
Ю 4-8
{10}
40 км 1/0
[]
+17.7 +13.0 74 +17 +21 1005.5 1005.0
ЮЗ 6-10
{10}
45 км ясно +18.0 +10.9 63 +17 +19 1005.3 1004.8
ЮЗ 5-7
{8}
45 км ясно +16.6 +12.2 75 +16 +16 1005.3 1004.8
ЮЗ 4-7
{9}
50 км ясно +16.5 +13.2 81 +16 +16 1004.9 1004.4 +15.5 +20.2
Ю 3-4
{5}
45 км ясно +15.6 +13.5 87 +15 +15 1004.2 1003.7
ЮЗ 3-6
{7}
50 км ясно +16.0 +12.8 81 +16 +16 1004.6 1004.1
ЮЗ 4-7
{7}
50 км ясно +15.8 +12.8 82 +15 +15 1004.0 1003.5
ЮЗ 4-6
{7}
40 км ясно +15.9 +13.5 86 +15 +15 1003.6 1003.1
ЮЗ 5-8
{10}
45 км ясно +15.2 +13.6 90 +14 +14 1003.2 1002.7
ЮЗ 4-6
{8}
45 км в посл. час морось {ливн. дождь, дождь} ясно +14.8 +13.9 94 +14 +14 1002.6 1002.1
ЮЗ 4-7
{8}
13 км слаб. ливневой дождь {морось} ясно +13.8 +13.8 100 +12 +12 1001.5 1001.0 1
ЮЗ 4-6
{7}
2100 м сильн. ливневой дождь {морось} 1/1 150 м
[]
+14.0 +13.9 99 +12 +12 1001.7 1001.2 4
З 4-7
{9}
22 км слаб. ливневой дождь {морось} ясно +13.8 +13.8 100 +12 +12 1001.9 1001.4 0.8
З 3-4
{9}
40 км в посл. час дождь {ливн. дождь, морось} ясно +13.4 +13.4 100 +12 +13 1002.7 1002.2 0.3
З 2-5
{7}
40 км {ливн. дождь, дождь} ясно +14.8 +14.8 100 +14 +16 1003.1 1002.6
З 4-6
{6}
40 км {ливн. дождь, дождь} 1/0
[]
+14.8 +14.4 97 +14 +16 1003.7 1003.2 +13.2 +16.6
З 5-8
{8}
40 км {ливн. дождь, морось} 1/0
[]
+17.9 +14.8 82 +17 +22 1004.3 1003.8
З 3-7
{7}
40 км в посл. час морось {ливн. дождь, дождь} 1/0
[]
+15.5 +14.7 95 +15 +20 1004.1 1003.6 0.1
З 4-7
{8}
45 км {ливн. дождь, морось} 3/0
[]
+19.1 +14.5 75 +20 +27 1004.3 1003.8
З 5-7
{8}
40 км {ливн. дождь, морось} 1/0
[]
+20.6 +14.3 67 +23 +29 комфорт 1004.3 1003.8
З 5-9
{9}
40 км {ливн. дождь, морось} ясно +20.4 +13.5 65 +23 +29 комфорт 1004.3 1003.8
З 5-9
{9}
35 км {ливн. дождь, морось} 4/0
[]
+21.4 +14.0 63 +24 +29 комфорт 1004.2 1003.7
З 6-10
{10}
45 км 3/0
[]
+20.8 +13.6 63 +23 +26 комфорт 1003.9 1003.4
З 6-9
{10}
45 км 1/0
[]
+21.6 +13.2 59 +24 +28 комфорт 1004.0 1003.5
З 4-9
{11}
35 км 1/0
[]
+20.5 +13.6 65 +23 +26 комфорт 1004.0 1003.5
С 4-8
{8}
10 км сильн. ливневой дождь ясно +15.3 +13.7 90 +14 +16 1004.6 1004.1 2
З 2-5
{9}
35 км слаб. дождь ясно +14.1 +14.1 100 +13 +15 1004.7 1004.2 7
З 2-4
{5}
26 км слаб. ливневой дождь ясно +14.5 +14.5 100 +14 +14 1004.3 1003.8 +13.9 +22.8 0.3
З 4-7
{7}
8000 м дождь {ливн. дождь} ясно +14.6 +14.6 100 +13 +13 1004.2 1003.7 2
З 4-6
{7}
8000 м дождь {ливн. дождь} ясно +14.7 +14.7 100 +13 +13 1004.2 1003.7 2
З 4-9
{9}
9000 м дождь {ливн. дождь} ясно +14.8 +14.8 100 +13 +13 1004.0 1003.5 2
З 4-7
{7}
5000 м слаб. дождь {морось} ясно +14.8 +14.8 100 +13 +13 1004.1 1003.6 0.9
СЗ 3-7
{7}
13 км ливневой дождь ясно +14.8 +14.8 100 +14 +14 1004.3 1003.8 0.9
СЗ 3-6
{6}
45 км в посл. час дождь {ливн. дождь, морось} ясно +15.0 +15.0 100 +14 +14 1004.8 1004.3 0.5
С 4-7
{7}
50 км в посл. час морось ясно +14.8 +14.7 99 +13 +13 1007.1 1006.6 0.1
С 3-5
{6}
14 км {морось} ясно +14.8 +14.8 100 +14 +14 1005.6 1005.1
С 3-7
{7}
50 км {ливн. дождь, морось} ясно +14.0 +13.8 99 +13 +13 1008.2 1007.7
С 4-7
{8}
45 км {ливн. дождь, морось} ясно +14.5 +14.3 99 +13 +13 1009.4 1008.9
С 4-7
{8}
45 км {ливн. дождь, морось} ясно +15.2 +14.7 97 +14 +15 1010.4 1009.9
С 5-9
{9}
45 км {ливн. дождь, морось} ясно +16.0 +14.9 93 +15 +17 1011.3 1010.8 +13.9 +16.2
С 4-7
{10}
40 км 1/0
[]
+18.3 +15.5 84 +19 +24 1013.0 1012.5
С 5-9
{9}
45 км 3/0
[]
+17.3 +15.5 89 +17 +19 1012.1 1011.6
С 5-9
{9}
45 км 1/0
[]
+19.2 +15.1 77 +20 +26 1013.8 1013.3
С 5-8
{10}
45 км 3/0
[]
+19.1 +14.6 75 +20 +26 1014.4 1013.9
С 5-10
{10}
45 км 1/0
[]
+20.6 +15.0 70 +23 +30 комфорт 1014.5 1014.0
С 6-10
{10}
45 км ясно +21.5 +14.9 66 +25 +29 комфорт 1014.8 1014.3
С 4-9
{9}
45 км ясно +21.4 +15.1 67 +25 +30 комфорт 1015.7 1015.2
С 5-9
{11}
45 км ясно +20.8 +14.1 65 +23 +29 комфорт 1015.3 1014.8
С 4-7
{8}
45 км ясно +20.8 +15.0 69 +24 +27 комфорт 1016.1 1015.6
С 4-6
{8}
50 км ясно +20.6 +14.6 68 +23 +25 комфорт 1016.3 1015.8
С 4-7
{7}
45 км ясно +20.5 +13.8 65 +23 +24 комфорт 1016.6 1016.1
С 3-5
{7}
45 км ясно +19.8 +13.5 67 +22 +22 комфорт 1016.8 1016.3 +16.0 +22.5
С 1-1
{1}
45 км ясно +14.4 +13.2 92 +15 +15 1017.8 1017.3
С 1-2
{5}
45 км ясно +17.1 +13.6 80 +18 +18 1017.2 1016.7
С 1-2
{2}
45 км ясно +13.3 +12.6 96 +13 +13 1017.9 1017.4
СЗ 2-3
{3}
45 км ясно +13.3 +12.6 96 +12 +12 1018.0 1017.5
С 2-4
{4}
22 км ясно +13.7 +12.6 93 +13 +13 1018.1 1017.6
С 3-4
{4}
45 км ясно +13.7 +12.3 91 +12 +12 1018.1 1017.6
С 2-4
{4}
45 км ясно +14.4 +13.1 92 +14 +14 1017.9 1017.4
СЗ 3-4
{4}
45 км ясно +14.4 +13.2 92 +13 +13 1018.0 1017.5
СЗ 2-4
{4}
45 км ясно +14.4 +13.6 95 +14 +14 1017.9 1017.4
СЗ 2-4
{4}
45 км ясно +15.5 +14.3 93 +15 +16 1017.7 1017.2
С 3-4
{5}
40 км ясно +17.5 +15.5 88 +17 +19 1017.8 1017.3
С 3-5
{5}
45 км ясно +19.1 +15.8 81 +21 +24 комфорт 1017.7 1017.2 +12.7 +19.7
ЮВ 2-3
{4}
35 км ясно +20.9 +17.0 78 +25 +34 комфорт 1018.0 1017.5
С 2-4
{4}
40 км ясно +20.2 +16.2 78 +24 +30 комфорт 1017.9 1017.4
ЮВ 2-4
{4}
40 км ясно +21.3 +16.7 75 +25 +36 комфорт 1018.2 1017.7
ЮВ 2-4
{4}
40 км ясно +21.4 +15.2 68 +25 +37 комфорт 1018.2 1017.7
ЮВ 1-4
{4}
45 км ясно +22.3 +14.1 60 +26 +40 жарко 1018.0 1017.5
ЮВ 3-5
{5}
45 км ясно +21.7 +13.5 60 +24 +34 комфорт 1017.9 1017.4
Ю 4-4
{5}
45 км ясно +20.4 +14.1 67 +23 +28 комфорт 1017.4 1016.9
Ю 4-5
{5}
40 км ясно +21.9 +13.1 57 +25 +31 комфорт 1017.6 1017.1
Ю 2-4
{4}
45 км ясно +20.3 +13.8 66 +23 +28 комфорт 1017.2 1016.7
Ю 3-4
{4}
45 км ясно +19.5 +13.4 68 +21 +24 комфорт 1017.0 1016.5
Ю 2-3
{4}
45 км ясно +19.0 +14.9 77 +21 +22 комфорт 1016.7 1016.2
ЮЗ 2-3
{3}
45 км ясно +17.6 +14.7 83 +18 +18 1016.3 1015.8 +17.5 +23.1
Ю 1-2
{3}
50 км ясно +15.9 +15.0 94 +17 +17 1015.9 1015.4
Ю 1-2
{3}
45 км ясно +16.5 +15.4 93 +17 +17 1015.9 1015.4
Ю 1-2
{3}
45 км ясно +15.5 +15.0 97 +16 +16 1015.4 1014.9
Ю 1-2
{2}
22 км ясно +15.4 +15.4 100 +16 +16 1015.1 1014.6
ЮЗ 1-2
{2}
16 км ясно +15.2 +15.2 100 +16 +16 1014.7 1014.2
штиль 0
{2}
12 км ясно +14.5 +14.5 100 +14 +14 1014.1 1013.6
штиль 0-1
{2}
16 км ясно +14.5 +14.5 100 +14 +14 1013.2 1012.7
штиль 0-1
{2}
13 км ясно +14.1 +14.1 100 +14 +14 1013.5 1013.0
штиль 0-2
{2}
30 км ясно +14.7 +14.7 100 +14 +14 1012.7 1012.2
штиль 0-2
{2}
35 км ясно +15.1 +15.1 100 +15 +15 1012.1 1011.6
ЮЗ 2-4
{4}
45 км ясно +17.6 +17.2 98 +18 +20 1011.9 1011.4
Ю 3-4
{5}
40 км ясно +19.0 +16.3 84 +21 +24 комфорт 1011.5 1011.0 +13.9 +19.2
ЮЗ 5-8
{8}
45 км 1/0
[]
+21.4 +15.0 67 +25 +29 комфорт 1011.0 1010.5
Ю 3-5
{5}
40 км ясно +20.8 +17.7 82 +25 +30 комфорт 1011.2 1010.7
Ю 4-7
{7}
40 км ясно +21.8 +14.3 62 +25 +32 комфорт 1010.7 1010.2
Ю 4-7
{7}
40 км 1/0
[]
+20.6 +15.2 71 +24 +31 комфорт 1010.4 1009.9
Ю 5-7
{7}
40 км ясно +20.8 +14.7 68 +24 +30 комфорт 1010.1 1009.6
Ю 7-9
{9}
35 км 4/0
[]
+19.8 +15.0 74 +21 +24 комфорт 1009.9 1009.4
Ю 6-8
{9}
35 км ясно +19.5 +15.2 76 +21 +24 комфорт 1008.9 1008.4
Ю 6-9
{9}
40 км 3/0
[]
+19.9 +15.4 75 +22 +25 комфорт 1009.5 1009.0
Ю 6-8
{8}
45 км ясно +19.1 +14.6 75 +20 +22 1008.5 1008.0
Ю 5-8
{8}
45 км ясно +17.8 +15.4 86 +17 +19 1007.9 1007.4
Ю 6-9
{9}
45 км ясно +17.4 +15.9 91 +17 +17 1007.5 1007.0
Ю 4-6
{8}
35 км ясно +17.0 +16.2 95 +17 +17 1006.9 1006.4 +17.0 +22.2
ЮЗ 3-5
{7}
30 км ясно +17.3 +16.7 96 +17 +17 1006.6 1006.1
ЮЗ 5-7
{7}
35 км ясно +17.4 +16.6 95 +17 +17 1006.6 1006.1
ЮЗ 1-2
{5}
28 км ясно +16.9 +16.6 98 +18 +18 1006.3 1005.8
З 1-2
{2}
22 км ясно +16.0 +15.8 99 +17 +17 1006.4 1005.9
З 2-2
{2}
22 км ясно +15.3 +15.3 100 +15 +15 1006.6 1006.1
З 1-2
{5}
50 км ясно +15.0 +14.4 96 +15 +15 1006.5 1006.0
штиль 0-1
{3}
45 км ясно +12.8 +12.5 98 +12 +12 1006.4 1005.9
З 2-3
{4}
50 км 1/1 1500 м
[]
+14.5 +13.9 96 +14 +14 1006.5 1006.0
З 2-3
{4}
45 км ясно +12.9 +12.9 100 +12 +12 1006.4 1005.9
З 1-2
{3}
45 км ясно +13.1 +13.1 100 +13 +14 1006.5 1006.0
З 3-5
{5}
45 км ясно +16.1 +14.3 89 +16 +17 1006.4 1005.9
З 3-7
{7}
45 км ясно +16.8 +13.7 82 +17 +19 1006.5 1006.0 +12.4 +17.5
З 4-7
{7}
40 км ясно +18.0 +13.0 73 +18 +22 1006.6 1006.1
Местоположение метеостанции Хасфьярден (Швеция): широта 59.07 долгота 18.12 высота над уровнем моря 3 м.
В архиве по умолчанию представлена погода в Хасфьярдене за последнюю неделю. Архивные данные за месяц целиком и за предыдущие месяцы, начиная с января 2011 года, Вы можете получить, выбрав интересующий диапазон дат из раскрывающегося списка и нажав кнопку "Найти!".
*Определитесь, кто Вы:
Внимание! Время в таблицах - всемирное. Для получения местного времени необходимо прибавить поправку, которая равна 1 ч.
Смотрите также архив погоды в соседних городах и на ближайших метеорологических станциях:
Партнеры нашего сайта:      
Пояснения к столбцам:
  • Ветер - указаны скорость ветра в м/с - средняя за 10 мин, порывы в срок и между сроками (в фигурных скобках) и направление, откуда дует ветер: С - северный,
  • СВ - северо-восточный, В - восточный, ЮВ - юго-восточный, Ю - южный, ЮЗ - юго-западный, З - западный, СЗ - северо-западный.
  • Видимость - горизонтальная дальность видимости в метрах или километрах. При видимости от 1 до 10 км при отсутствии осадков обычно наблюдается дымка, при ухудшении видимости до 1 км и менее - туман. В сухую погоду видимость может ухудшаться дымом, пылью или мглою.
  • Явления - указаны атмосферные явления, наблюдавшиеся в срок или в последний час перед сроком; фигурными скобками обозначены явления, наблюдавшиеся между сроками (за 1-3 часа до срока); квадратными скобками обозначены град или гололедные отложения с указанием их диаметра в мм.
  • Облачность - указаны через наклонную черту общая и нижняя облачность в баллах и высота нижней границы облаков в метрах; квадратными скобками обозначены формы облаков: Ci - перистые, Cs - перисто-слоистые, Cc - перисто-кучевые, Ac - высококучевые, As - высокослоистые, Sc - слоисто-кучевые, Ns - слоисто-дождевые, Cu - кучевые, Cb - кучево-дождевые. Подробнее классификацию облаков см. в Атласе облаков (PDF).
  • T - Температура воздуха - температура, измеренная на высоте 2 м над землей.
  • Td - Температура точки росы - температура, при понижении до которой содержащийся в воздухе водяной пар достигнет насыщения.
  • f - Относительная влажность воздуха - влажноcть воздуха, измеренная на высоте 2 м над землей.
  • Te - Эффективная температура - температура, которую ощущает одетый по сезону человек в тени. Характеристика душности погоды. При расчете учитывается влияние влажности воздуха и скорости ветра на теплоощущения человека.
  • Tes - Эффективная температура на солнце - температура, которую ощущает человек, с поправкой на солнечный нагрев. Характеристика знойности погоды. Зависит от высоты солнца над горизонтом, облачности и скорости ветра. Ночью, в пасмурную погоду, а также при ветре 12 м/с и более поправка равна нулю.
  • P - Атмосферное давление - приведенное к уровню моря атмосферное давление.
  • Po - Атмосферное давление - измеренное на уровне метеостанции атмосферное давление.
  • Tmin - Минимальная температура - минимум температуры воздуха на высоте 2 м над землей.
  • Tmax - Максимальная температура - максимум температуры воздуха на высоте 2 м над землей.
  • R - Количество осадков - Количество выпавших осадков за период времени, мм. При наведении курсора мыши на число - период времени, за который выпало указанное количество осадков.
  • R24 - Количество осадков - Количество выпавших осадков за 24 часа, мм.
  • S - Снежный покров - Высота снежного покрова, см. При наведении курсора мыши на число - состояние снежного покрова и степень покрытия местности в баллах.